Flag for Germany Weather past 2 weeks in Vaihingen an der Enz, Baden-Württemberg, Germany

Now
55 °F

Sunny.


Feels Like: 55 °F
Forecast: 42 / 69 °F
Wind: 3 mph from Southwest

Location: Stuttgart-Echterdingen

Current Time: Aug 21, 2014 at 9:19:12 AM

Latest Report: Aug 21, 2014 at 8:50 AM


Visibility: 10 mi

Pressure: 30.07 "Hg

Humidity: 77%

Dew point: 48 °F

Location of Vaihingen an der EnzLocation

Historic Weather in Vaihingen an der Enz — Graph

°F

Vaihingen an der Enz temperature yesterday

Maximum temperature yesterday: 64 °F (at 1:50 PM)
Minimum temperature yesterday: 52 °F (at 2:20 AM)
Average temperature yesterday: 57 °F

Past Weeks' High & Low Weather Summary

 TemperatureHumidityPressure
High82 °F (Aug 10, 5:20 PM)100% (Aug 6, 7:20 AM)30.18 "Hg (Aug 6, 7:20 AM)
Low48 °F (Aug 21, 6:50 AM)40% (Aug 19, 5:50 PM)29.68 "Hg (Aug 13, 1:20 PM)
Average63 °F73%29.96 "Hg
* Reported Aug 6 7:20 AM — Aug 21 7:50 AM, Vaihingen an der Enz, Weather by CustomWeather, © 2014

Note: Actual official high and low records may vary slightly from our data, if they occured in-between our weather recording intervals... More about our weather records

Advertising

Vaihingen an der Enz weather history for previous 24 hours

 ConditionsComfort  
Time TempWeatherWind HumidityBarometerVisibility
7:50 AM
Aug 21
52 °FSunny.1 mph88%30.07 "Hg10 mi
7:20 AM50 °FClear.2 mph88%30.07 "Hg10 mi
6:50 AM48 °FClear.1 mph87%30.07 "Hg10 mi
6:20 AM50 °FClear.3 mph88%30.07 "Hg10 mi
5:50 AM50 °FPassing clouds.6 mph88%30.07 "HgN/A
5:20 AM50 °FPassing clouds.5 mph88%30.07 "HgN/A
4:50 AM52 °FPassing clouds.2 mph88%30.07 "HgN/A
4:20 AM52 °FPassing clouds.5 mph88%30.07 "HgN/A
3:50 AM54 °FPartly cloudy.3 mph82%30.07 "HgN/A
3:20 AM54 °FPartly cloudy.2 mph88%30.07 "HgN/A
2:50 AM54 °FPartly cloudy.3 mph88%30.07 "HgN/A
2:20 AM54 °FLight rain. Clear.2 mph82%30.04 "HgN/A
1:50 AM55 °FLight rain. Clear.7 mph82%30.07 "HgN/A
1:20 AM55 °FLight rain. Clear.5 mph77%30.04 "HgN/A
12:50 AM55 °FClear.6 mph77%30.04 "Hg10 mi
12:20 AM55 °FLight rain. Clear.3 mph77%30.04 "HgN/A
11:50 PM
Aug 20
55 °FClear.6 mph77%30.04 "Hg10 mi
11:20 PM57 °FClear.3 mph72%30.04 "Hg10 mi
10:50 PM57 °FClear.2 mph72%30.04 "Hg10 mi
10:20 PM57 °FClear.2 mph72%30.04 "Hg10 mi
9:50 PM57 °FClear.1 mph72%30.04 "Hg10 mi
9:20 PM57 °FSunny.2 mph72%30.04 "Hg10 mi
8:50 PM59 °FSunny.1 mph63%30.01 "Hg10 mi
8:20 PM59 °FSunny.3 mph63%30.01 "Hg10 mi
7:50 PM59 °FSunny.5 mph59%30.01 "Hg10 mi
7:20 PM59 °FSunny.6 mph59%30.01 "Hg10 mi
6:50 PM61 °FSunny.7 mph55%30.01 "Hg10 mi
6:20 PM61 °FSunny.9 mph55%30.01 "Hg10 mi
5:50 PM61 °FSunny.9 mph55%30.01 "Hg10 mi
5:20 PM61 °FSunny.10 mph59%30.01 "Hg10 mi
4:50 PM63 °FSunny.10 mph52%30.01 "Hg10 mi
4:20 PM63 °FSunny.7 mph52%30.01 "Hg10 mi
3:50 PM63 °FSunny.3 mph49%30.01 "Hg10 mi
3:20 PM63 °FSunny.3 mph52%30.01 "Hg10 mi
2:50 PM63 °FSunny.6 mph49%30.04 "Hg10 mi
2:20 PM63 °FPartly sunny.5 mph49%30.04 "HgN/A
1:50 PM64 °FPartly sunny.1 mph56%30.04 "HgN/A
1:20 PM63 °FPartly sunny.5 mph56%30.04 "HgN/A
12:50 PM61 °FPartly sunny.5 mph59%30.04 "HgN/A
12:20 PM61 °FPartly sunny.3 mph59%30.04 "HgN/A
11:50 AM61 °FPartly sunny.2 mph68%30.04 "HgN/A
11:20 AM59 °FScattered clouds.5 mph63%30.04 "HgN/A
10:50 AM57 °FScattered clouds.2 mph72%30.07 "HgN/A
10:20 AM59 °FScattered clouds.3 mph72%30.07 "HgN/A
9:50 AM55 °FScattered clouds.3 mph77%30.07 "HgN/A
9:20 AM55 °FScattered clouds.2 mph72%30.07 "HgN/A
Weather by CustomWeather, © 2014

See weather overviewHow to use our weather pages